METEOR 2-8 DEB

Satellite information

Favourite Embed

Satellite Type and Status

DEBRISIN ORBIT

Key statistics

Satellite METEOR 2-8 DEB at a glance.

Uptime

15810

Days in orbit

Revolutions

≈ 14.1

Per day

Orbit

LEO

Low Earth Orbit

Inclination

82.5

Latest

Satellite identification and parameters

Extended collection of information and parameters for METEOR 2-8 DEB.

Object identification

Identified? True

Debris? True

Object name: METEOR 2-8 DEB

International designator: 1982-025AP

Object number (NORAD): 36353

Object ID (CCSDS): 36353

Country: COMMONWEALTH OF INDEPENDENT STATES (CIS)

Current information (Y/N): Y

RCS size: SMALL

Orbital parameters

Period: 101.792 minutes

Inclination: 82.5333 deg

SMA: 7221.629 km

Apoapsis: 851.621 km

Periapsis: 835.367 km

RAAN: 193.6718 deg

Eccentricy: 0.0011254

Argument of periapsis: 83.5063 deg

Mean anomaly: 276.7395 deg

Mean motion: 14.14653175 rev/day

Mean motion (dot): 0.00002421 rev/day2

B* drag term: 0.0012506 1/REarth

Two-line elements (TLE)

Creation date: June 29, 2025, 5:39 p.m.

Reference frame: TEME

Reference center: EARTH

Epoch: June 29, 2025, 8:41 a.m. UTC

TLE line 0: 0 METEOR 2-8 DEB

TLE line 1: 1 36353U 82025AP 25180.36213423 .00002421 00000-0 12506-2 0 9992

TLE line 2: 2 36353 82.5333 193.6718 0011254 83.5063 276.7395 14.14653175480018

Live tracking on map

Real-time ground track for satellite METEOR 2-8 DEB.

In-orbit conjunctions

A list of the most updated potential collisions computed for object METEOR 2-8 DEB.

Target Orbit TCA Probability of collision Miss distance Type
THOR BURNER 2 R/B SSO 2025-06-14 10:54:36 0.0008160228 146.0 (m) ROCKET BODY
DMSP 5D-2 F13 DEB SSO 2025-03-05 20:15:42 0.0001219781 218.0 (m) DEBRIS
CZ-6A DEB SSO 2024-09-09 17:14:57 0.0001124374 67.0 (m) DEBRIS

Associated space launch

Second generation soviet meteorological satellite

METEOR 2-8 DEB was lifted into orbit during the mission ‘Tsiklon-3 | Meteor-2 8’, on board a Tsiklon-3 space rocket.

The launch took place on March 25, 1982, 9:50 a.m. from 32/1.

For more information about the launch, click the button.

Launch to space Tsiklon-3 | Meteor-2 8
Tsiklon-3 | Meteor-2 8

Agency: N/A

Status: Launch Successful

Launch date: March 25, 1982, 9:50 a.m. UTC

Rocket: Tsiklon-3

Launch pad: 32/1

Location: Plesetsk Cosmodrome, Russian Federation

...

Latest news about this satellite

There are no fresh news available about this satellite. Check back as we update our databases every day.


Newsletter sign-up

Weekly statistics, charts and insights to help you stay on top of the space industry.